PDT,Max TemperatureF,Mean TemperatureF,Min TemperatureF,Max Dew PointF,MeanDew PointF,Min DewpointF,Max Humidity, Mean Humidity, Min Humidity, Max Sea Level PressureIn, Mean Sea Level PressureIn, Min Sea Level PressureIn, Max VisibilityMiles, Mean VisibilityMiles, Min VisibilityMiles, Max Wind SpeedMPH, Mean Wind SpeedMPH, Max Gust SpeedMPH,PrecipitationIn, CloudCover, Events, WindDirDegrees
2013-9-1,84,69,54,59,55,53,100,69,37,29.94,29.90,29.83,10,7,0,14,4,18,0.00,5,Fog,170
2013-9-2,83,69,54,60,58,53,93,70,46,29.92,29.88,29.84,10,10,10,15,4,21,0.00,1,,191
2013-9-3,82,66,49,57,53,48,100,67,33,29.96,29.93,29.87,10,6,0,14,4,17,0.00,1,Fog,193
2013-9-4,85,67,49,56,53,48,100,67,34,30.00,29.95,29.88,10,7,0,13,3,17,0.00,1,Fog,200
2013-9-5,86,68,49,54,50,44,96,61,25,29.97,29.93,29.89,10,10,8,17,5,24,0.00,0,,256
2013-9-6,94,72,49,52,48,42,89,53,17,29.95,29.89,29.80,10,10,10,13,4,17,0.00,0,,245
2013-9-7,96,73,50,51,46,35,83,48,13,29.85,29.81,29.77,10,10,10,14,4,18,0.00,0,,214
2013-9-8,92,72,51,54,52,47,100,61,21,29.88,29.81,29.73,10,7,0,13,4,15,0.00,1,Fog,166
2013-9-9,95,73,50,56,52,48,93,61,28,29.79,29.73,29.66,10,10,10,16,5,20,0.00,0,,156
2013-9-10,71,64,56,61,57,54,100,83,66,29.90,29.81,29.72,10,8,2,17,5,23,0.00,7,,201
2013-9-11,69,66,62,61,59,57,93,80,66,29.99,29.94,29.88,10,8,5,10,3,16,0.00,8,,215
2013-9-12,82,69,56,60,58,55,93,72,50,29.97,29.91,29.84,10,9,5,14,5,16,0.00,5,,179
2013-9-13,83,68,53,57,55,53,100,70,39,29.90,29.84,29.72,10,5,0,15,4,20,0.00,5,Fog,154
2013-9-14,82,66,49,56,54,50,96,69,42,29.81,29.75,29.68,10,8,2,14,4,20,0.00,3,,161
2013-9-15,81,65,49,57,54,48,100,71,42,29.84,29.79,29.75,10,6,0,14,4,18,0.00,4,Fog,200
2013-9-16,87,69,51,57,54,51,100,65,30,29.89,29.83,29.72,10,5,0,14,4,17,0.01,2,Fog,171
2013-9-17,82,65,48,53,49,46,96,63,30,29.86,29.81,29.78,10,10,8,23,11,32,0.00,0,Fog,322
2013-9-18,85,70,54,48,45,35,72,45,18,29.89,29.84,29.78,10,10,10,17,7,22,0.00,0,,331
2013-9-19,89,67,45,50,44,36,93,55,16,29.84,29.78,29.72,10,10,10,13,4,16,0.00,0,,184
2013-9-20,78,60,41,63,52,39,100,73,46,29.82,29.79,29.75,10,8,1,18,5,23,0.16,5,Fog-Rain,210
2013-9-21,71,61,51,63,57,50,97,75,53,29.87,29.79,29.76,10,8,2,17,5,24,0.24,6,Rain,205
2013-9-22,78,62,45,52,48,43,100,65,29,29.98,29.93,29.88,10,6,0,15,4,20,0.00,2,Fog,296
2013-9-23,85,67,49,57,54,48,96,67,37,30.00,29.94,29.88,10,10,10,14,3,18,0.00,0,,198
2013-9-24,81,67,53,54,49,45,93,62,30,29.95,29.91,29.86,10,10,10,21,9,28,0.00,1,,302
2013-9-25,74,60,46,47,42,36,93,59,25,29.92,29.86,29.79,10,10,10,24,11,30,0.00,0,,319
2013-9-26,79,63,47,43,38,29,71,45,18,29.98,29.89,29.83,10,10,10,18,8,23,0.00,0,,350
2013-9-27,81,62,43,44,38,28,89,53,16,30.07,30.02,29.99,10,10,10,16,5,20,0.00,0,,315
2013-9-28,82,63,43,53,43,28,89,52,15,30.07,30.03,29.98,10,10,10,16,4,20,0.00,1,,191
2013-9-29,71,62,52,63,58,51,93,82,70,30.08,30.05,30.02,10,8,2,12,5,16,0.01,7,Rain,189
2013-9-30,73,63,52,64,60,47,93,83,72,30.04,30.01,29.95,10,8,3,13,4,16,0.07,7,Rain,168